Regional Weather Roundup
Issued by NWS

Home | Current Version | Previous Version | Text Only | Print | Product List | Glossary On
Versions: 1 2 3 4 5 6 7 8 9 10 11 12 13 14 15 16 17 18 19 20 21 22 23 24 25 26 27 28 29 30 31 32 33 34 35 36 37 38 39 40 41 42 43 44 45 46 47 48 49 50
000
ASUS44 KLIX 282101
RWRLA
LOUISIANA WEATHER ROUNDUP
NATIONAL WEATHER SERVICE NEW ORLEANS LA
300 PM CST WED JAN 28 2015

NOTE: "FAIR" INDICATES FEW OR NO CLOUDS BELOW 12,000 FEET WITH NO
      SIGNIFICANT WEATHER AND/OR OBSTRUCTIONS TO VISIBILITY.
      SKY/WX - SKY CONDITION AND SIGNIFICANT WEATHER.
      TMP - AIR TEMPERATURE.    DP   - DEWPOINT TEMPERATURE.
      RH  - RELATIVE HUMIDITY.  PRES - PRESSURE.
      HX  - HEAT INDEX.         WCI  - WIND CHILL INDEX.

*  THESE STATIONS ARE NOT NWS OR FAA STATIONS AND ARE NOT UNDER
   NWS QUALITY CONTROL.

LAZ040-048-061>063-065-066-069-282200-
SOUTHEAST LOUISIANA

CITY           SKY/WX    TMP DP  RH WIND       PRES   REMARKS
N.O. AUDUBON     N/A     67  40  36 MISG        N/A
N.O. INTL ARPT MOSUNNY   67  33  28 E6        30.23F
N.O. LAKEFRONT SUNNY     65  37  35 SE8       30.25F
N.O. DOWNTOWN* NOT AVBL
SLIDELL        SUNNY     63  40  42 S8        30.23S
BATON ROUGE    SUNNY     71  35  26 SE7       30.20F
BOOTHVILLE     SUNNY     60  48  64 NE7       30.25S
BELLE CHASSE   SUNNY     64  44  48 SE9       30.24S
BOGALUSA*        N/A     70  31  23 CALM      30.23S
GALLIANO*      NOT AVBL
NEW ROADS*     NOT AVBL
GONZALES*      NOT AVBL
HAMMOND*       NOT AVBL
HOUMA*         SUNNY     70  46  43 E8        30.23S
PORT FOURCHON* CLEAR     63  50  63 E10       30.27S

$$

LAZ041-044-053-054-282200-
SOUTHWEST LOUISIANA

CITY           SKY/WX    TMP DP  RH WIND       PRES   REMARKS
LAKE CHARLES   SUNNY     70  40  33 SE14      30.19F
LAFAYETTE      SUNNY     71  41  33 S8        30.21S
PATTERSON      SUNNY     70  43  37 SE7       30.23S
SALT POINT       N/A     65  45  48 SE9G17    30.21S
NEW IBERIA     SUNNY     71  45  39 SW9       30.21F
CHENAULT AIRPK SUNNY     72  39  30 S12       30.20F

$$

LAZ027-028-282200-
CENTRAL LOUISIANA

CITY           SKY/WX    TMP DP  RH WIND       PRES   REMARKS
FORT POLK      MOSUNNY   73  40  30 S13       30.15F
ALEXANDRIA INT SUNNY     72  45  37 SE9       30.15F
ALEXANDRIA     SUNNY     73  40  30 S9        30.18S

$$

LAZ001-002-282200-
NORTHWEST LOUISIANA

CITY           SKY/WX    TMP DP  RH WIND       PRES   REMARKS
SHREVEPORT     SUNNY     75  45  34 S13       30.09F
BARKSDALE AFB  SUNNY     74  40  29 S12G21    30.09F
DTN SHREVEPORT SUNNY     73  41  31 S10       30.09F

$$

LAZ014-016-282200-
NORTHEAST LOUISIANA

CITY           SKY/WX    TMP DP  RH WIND       PRES   REMARKS
MONROE         SUNNY     71  42  35 SE7       30.15F
TALLULAH       SUNNY     70  37  29 S9        30.17F

$$



USA.gov is the U.S. government's official web portal to all federal, state and local government web resources and services.